Location: Arboyeti
(42.1122°N, 44.6017°E)
Time: 11:06:20
(UTC+00:00)

X-37B - Visible Passes

Search period start: 27 September 2021 00:00
Search period end: 07 October 2021 00:00
Orbit: 381 x 393 km, 45.0° (Epoch: 29 August)

Date Brightness Start Highest point End Pass type
(mag) Time Alt. Az. Time Alt. Az. Time Alt. Az.
27 Sep 3.9 00:16:46 14° ENE 00:16:46 14° ENE 00:17:15 10° ENE visible
27 Sep 1.2 01:49:03 21° WNW 01:50:52 46° N 01:53:57 10° ENE visible
28 Sep 2.1 00:53:20 36° NE 00:53:20 36° NE 00:55:31 10° ENE visible
28 Sep 1.1 02:26:10 10° WNW 02:29:18 56° N 02:32:25 10° E visible
29 Sep 1.2 01:29:55 35° NW 01:30:50 48° N 01:33:54 10° E visible
30 Sep 3.3 00:34:14 20° ENE 00:34:14 20° ENE 00:35:25 10° ENE visible
30 Sep 0.7 02:06:32 14° WNW 02:09:12 76° NNE 02:12:22 10° ESE visible
01 Oct 1.1 01:10:55 55° NNE 01:10:55 55° NNE 01:13:53 10° E visible
02 Oct 4.2 00:15:21 10° E 00:15:21 10° E 00:15:23 10° E visible
02 Oct 0.5 01:47:40 30° W 01:49:03 71° SSW 01:52:12 10° ESE visible
03 Oct 2.6 00:52:12 27° E 00:52:12 27° E 00:53:50 10° ESE visible
03 Oct 2.0 02:24:31 10° W 02:27:06 24° SSW 02:29:43 10° SSE visible
04 Oct 1.2 01:29:09 40° S 01:29:09 40° S 01:31:51 10° SE visible
05 Oct 2.6 02:06:15 13° SW 02:06:45 14° SW 02:08:26 10° S visible
06 Oct 3.5 01:11:08 10° SSE 01:11:08 10° SSE 01:11:10 10° SSE visible
